| time (UTC) | temp C | wind direction | speed KPH | gust KPH | rain 1hr cm | rain 24hr cm | rain mn cm | humidity % | barometer mb |
| 20260905071522 | 18 | 33 | 0.0 | 0.0 | 0.03 | 0.05 | 0.05 | 89 | 1019.9 |
| 20260905070029 | 18 | 19 | 0.0 | 8.0 | 0.03 | 0.05 | 0.05 | 91 | 1019.8 |
| 20260905064517 | 18 | 340 | 0.0 | 0.0 | 0.03 | 0.05 | 0.05 | 91 | 1019.4 |
| 20260905063016 | 18 | 338 | 0.0 | 8.0 | 0.00 | 0.03 | 0.03 | 91 | 1019.3 |
| 20260905061514 | 18 | 332 | 3.2 | 8.0 | 0.00 | 0.03 | 0.03 | 90 | 1019.2 |
| 20260905060031 | 18 | 338 | 0.0 | 0.0 | 0.00 | 0.03 | 0.03 | 89 | 1018.9 |
| 20260905054509 | 18 | 302 | 0.0 | 0.0 | 0.00 | 0.03 | 0.03 | 89 | 1018.6 |
| 20260905053006 | 18 | 302 | 0.0 | 0.0 | 0.00 | 0.03 | 0.03 | 89 | 1018.5 |
| 20260905051507 | 18 | 300 | 0.0 | 0.0 | 0.00 | 0.03 | 0.03 | 89 | 1018.3 |
| 20260905050003 | 18 | 300 | 0.0 | 0.0 | 0.00 | 0.03 | 0.03 | 88 | 1018.4 |
| 20260905044606 | 18 | 300 | 0.0 | 0.0 | 0.03 | 0.03 | 0.03 | 87 | 1018.1 |
| 20260905043111 | 18 | 300 | 0.0 | 0.0 | 0.03 | 0.03 | 0.03 | 87 | 1018.0 |
| 20260905041558 | 18 | 350 | 0.0 | 9.7 | 0.03 | 0.03 | 0.03 | 87 | 1017.9 |
| 20260905040054 | 19 | 326 | 4.8 | 12.9 | 0.03 | 0.03 | 0.03 | 84 | 1017.8 |
| 20260905034558 | 20 | 43 | 0.0 | 8.0 | 0.00 | 0.00 | 0.00 | 79 | 1017.3 |
| 20260905033049 | 20 | 53 | 3.2 | 14.5 | 0.00 | 0.00 | 0.00 | 78 | 1017.6 |
| 20260905031547 | 20 | 329 | 4.8 | 19.3 | 0.00 | 0.00 | 0.00 | 75 | 1017.5 |
| 20260905030048 | 20 | 333 | 0.0 | 0.0 | 0.00 | 0.00 | 0.00 | 71 | 1017.1 |
| 20260905024542 | 20 | 333 | 0.0 | 0.0 | 0.00 | 0.00 | 0.00 | 70 | 1017.0 |
| 20260905023040 | 21 | 333 | 0.0 | 0.0 | 0.00 | 0.00 | 0.00 | 70 | 1016.7 |
| 20260905021545 | 21 | 333 | 0.0 | 0.0 | 0.00 | 0.00 | 0.00 | 69 | 1016.9 |
| 20260905020048 | 21 | 333 | 0.0 | 0.0 | 0.00 | 0.00 | 0.00 | 69 | 1016.7 |
| 20260905014537 | 21 | 333 | 0.0 | 0.0 | 0.00 | 0.00 | 0.00 | 68 | 1016.7 |
| 20260905013034 | 21 | 333 | 0.0 | 0.0 | 0.00 | 0.00 | 0.00 | 68 | 1016.6 |
| 20260905011547 | 21 | 332 | 0.0 | 0.0 | 0.00 | 0.00 | 0.00 | 65 | 1016.7 |
| 20260905010032 | 21 | 332 | 0.0 | 0.0 | 0.00 | 0.00 | 0.00 | 64 | 1016.6 |
| 20260905004533 | 22 | 332 | 0.0 | 0.0 | 0.00 | 0.00 | 0.00 | 63 | 1016.5 |
| 20260905003038 | 22 | 332 | 0.0 | 0.0 | 0.00 | 0.00 | 0.00 | 62 | 1016.4 |
| 20260905001521 | 22 | 332 | 0.0 | 0.0 | 0.00 | 0.00 | 0.00 | 61 | 1016.3 |
| 20260905000019 | 22 | 332 | 0.0 | 0.0 | 0.00 | 0.00 | 0.00 | 61 | 1016.0 |
| 20260904234520 | 23 | 332 | 0.0 | 6.4 | 0.00 | 0.00 | 0.00 | 60 | 1016.1 |
| 20260904233033 | 23 | 313 | 0.0 | 0.0 | 0.00 | 0.00 | 0.00 | 59 | 1015.8 |
| 20260904231511 | 23 | 284 | 0.0 | 6.4 | 0.00 | 0.00 | 0.00 | 57 | 1015.6 |
| 20260904230028 | 23 | 240 | 0.0 | 9.7 | 0.00 | 0.00 | 0.00 | 56 | 1015.4 |
| 20260904224507 | 24 | 249 | 1.6 | 8.0 | 0.00 | 0.00 | 0.00 | 57 | 1015.3 |
| 20260904223004 | 24 | 254 | 0.0 | 0.0 | 0.00 | 0.00 | 0.00 | 56 | 1014.9 |
| 20260904221501 | 25 | 265 | 0.0 | 0.0 | 0.00 | 0.00 | 0.00 | 55 | 1014.7 |
| 20260904220108 | 25 | 265 | 0.0 | 0.0 | 0.00 | 0.00 | 0.00 | 54 | 1014.7 |
| 20260904214558 | 25 | 265 | 0.0 | 1.6 | 0.00 | 0.00 | 0.00 | 53 | 1014.5 |
| 20260904213057 | 26 | 277 | 1.6 | 16.1 | 0.00 | 0.00 | 0.00 | 52 | 1014.5 |
| 20260904211558 | 26 | 227 | 0.0 | 6.4 | 0.00 | 0.00 | 0.00 | 49 | 1014.2 |
| 20260904210059 | 26 | 215 | 0.0 | 9.7 | 0.00 | 0.00 | 0.00 | 49 | 1014.0 |
| 20260904204555 | 26 | 213 | 1.6 | 6.4 | 0.00 | 0.00 | 0.00 | 49 | 1013.9 |
| 20260904203055 | 27 | 202 | 0.0 | 0.0 | 0.00 | 0.00 | 0.00 | 48 | 1013.9 |
| 20260904201611 | 27 | 209 | 0.0 | 0.0 | 0.00 | 0.00 | 0.00 | 48 | 1013.9 |
| 20260904200057 | 27 | 212 | 0.0 | 6.4 | 0.00 | 0.00 | 0.00 | 47 | 1013.7 |
| 20260904194556 | 27 | 214 | 1.6 | 8.0 | 0.00 | 0.00 | 0.00 | 47 | 1013.8 |
| 20260904193054 | 27 | 204 | 4.8 | 9.7 | 0.00 | 0.00 | 0.00 | 48 | 1013.7 |
| 20260904191653 | 27 | 199 | 3.2 | 12.9 | 0.00 | 0.00 | 0.00 | 48 | 1013.7 |
| 20260904190051 | 28 | 204 | 3.2 | 14.5 | 0.00 | 0.00 | 0.00 | 48 | 1013.5 |
| 20260904184550 | 28 | 153 | 4.8 | 12.9 | 0.00 | 0.00 | 0.00 | 47 | 1013.4 |
| 20260904183058 | 28 | 191 | 1.6 | 11.3 | 0.00 | 0.00 | 0.00 | 47 | 1013.3 |
| 20260904181549 | 29 | 192 | 0.0 | 6.4 | 0.00 | 0.00 | 0.00 | 46 | 1013.1 |
| 20260904180059 | 30 | 218 | 1.6 | 12.9 | 0.00 | 0.00 | 0.00 | 44 | 1013.0 |
| 20260904174549 | 30 | 189 | 3.2 | 14.5 | 0.00 | 0.00 | 0.00 | 43 | 1012.9 |
| 20260904173110 | 31 | 196 | 8.0 | 17.7 | 0.00 | 0.00 | 0.00 | 41 | 1012.8 |
| 20260904171554 | 31 | 198 | 6.4 | 17.7 | 0.00 | 0.00 | 0.00 | 40 | 1012.9 |
| 20260904170056 | 31 | 128 | 8.0 | 22.5 | 0.00 | 0.00 | 0.00 | 39 | 1012.8 |
| 20260904164547 | 32 | 198 | 9.7 | 24.1 | 0.00 | 0.00 | 0.00 | 38 | 1012.8 |
| 20260904163048 | 32 | 190 | 9.7 | 19.3 | 0.00 | 0.00 | 0.00 | 37 | 1012.7 |
| 20260904161544 | 32 | 216 | 8.0 | 22.5 | 0.00 | 0.00 | 0.00 | 36 | 1012.7 |
| 20260904160044 | 32 | 196 | 8.0 | 20.9 | 0.00 | 0.00 | 0.00 | 36 | 1012.7 |
| 20260904154542 | 32 | 213 | 8.0 | 24.1 | 0.00 | 0.00 | 0.00 | 36 | 1012.7 |
| 20260904153049 | 32 | 250 | 11.3 | 22.5 | 0.00 | 0.00 | 0.00 | 36 | 1013.0 |
| 20260904151545 | 32 | 197 | 8.0 | 29.0 | 0.00 | 0.00 | 0.00 | 36 | 1013.0 |
| 20260904150043 | 32 | 190 | 8.0 | 25.7 | 0.00 | 0.00 | 0.00 | 37 | 1012.9 |
| 20260904144538 | 32 | 179 | 12.9 | 20.9 | 0.00 | 0.00 | 0.00 | 37 | 1013.0 |
| 20260904143036 | 32 | 200 | 11.3 | 27.4 | 0.00 | 0.00 | 0.00 | 37 | 1013.1 |
| 20260904141537 | 32 | 217 | 12.9 | 29.0 | 0.00 | 0.00 | 0.00 | 38 | 1013.1 |
| 20260904140033 | 32 | 108 | 12.9 | 27.4 | 0.00 | 0.00 | 0.00 | 38 | 1013.2 |
| 20260904134531 | 32 | 159 | 12.9 | 30.6 | 0.00 | 0.00 | 0.00 | 37 | 1013.4 |
| 20260904133030 | 32 | 165 | 11.3 | 32.2 | 0.00 | 0.00 | 0.00 | 38 | 1013.6 |
| 20260904131523 | 32 | 127 | 12.9 | 32.2 | 0.00 | 0.00 | 0.00 | 37 | 1013.8 |
| 20260904130021 | 31 | 225 | 12.9 | 24.1 | 0.00 | 0.00 | 0.00 | 38 | 1014.1 |
| 20260904124518 | 31 | 125 | 8.0 | 25.7 | 0.00 | 0.00 | 0.00 | 38 | 1014.5 |
| 20260904123017 | 31 | 140 | 12.9 | 30.6 | 0.00 | 0.00 | 0.00 | 38 | 1014.5 |
| 20260904121503 | 31 | 152 | 16.1 | 25.7 | 0.00 | 0.00 | 0.00 | 38 | 1014.7 |
| 20260904120115 | 31 | 165 | 12.9 | 27.4 | 0.00 | 0.00 | 0.00 | 38 | 1014.8 |
| 20260904114557 | 31 | 193 | 16.1 | 30.6 | 0.00 | 0.00 | 0.00 | 39 | 1015.0 |
| 20260904113055 | 30 | 212 | 16.1 | 32.2 | 0.00 | 0.00 | 0.00 | 39 | 1015.3 |
| 20260904111600 | 30 | 238 | 9.7 | 22.5 | 0.00 | 0.00 | 0.00 | 39 | 1015.3 |
| 20260904110049 | 30 | 196 | 9.7 | 20.9 | 0.00 | 0.00 | 0.00 | 39 | 1015.6 |
| 20260904104546 | 29 | 244 | 9.7 | 22.5 | 0.00 | 0.00 | 0.00 | 40 | 1015.8 |
| 20260904103044 | 29 | 227 | 9.7 | 25.7 | 0.00 | 0.00 | 0.00 | 39 | 1016.0 |
| 20260904101539 | 29 | 218 | 9.7 | 20.9 | 0.00 | 0.00 | 0.00 | 38 | 1016.2 |
| 20260904100036 | 29 | 198 | 12.9 | 25.7 | 0.00 | 0.00 | 0.00 | 38 | 1016.3 |
| 20260904094535 | 28 | 204 | 6.4 | 24.1 | 0.00 | 0.00 | 0.00 | 38 | 1016.6 |
| 20260904093029 | 28 | 175 | 11.3 | 20.9 | 0.00 | 0.00 | 0.00 | 38 | 1016.6 |
| 20260904091525 | 28 | 217 | 4.8 | 19.3 | 0.00 | 0.00 | 0.00 | 40 | 1016.8 |
| 20260904090021 | 27 | 222 | 3.2 | 16.1 | 0.00 | 0.00 | 0.00 | 44 | 1016.9 |
| 20260904084517 | 26 | 169 | 3.2 | 12.9 | 0.00 | 0.00 | 0.00 | 47 | 1017.0 |
| 20260904083012 | 26 | 224 | 3.2 | 14.5 | 0.00 | 0.00 | 0.00 | 50 | 1017.1 |
| 20260904081508 | 25 | 219 | 0.0 | 8.0 | 0.00 | 0.00 | 0.00 | 51 | 1017.2 |
| 20260904080005 | 24 | 218 | 0.0 | 6.4 | 0.00 | 0.00 | 0.00 | 54 | 1017.2 |
| 20260904074616 | 23 | 160 | 0.0 | 8.0 | 0.00 | 0.00 | 0.00 | 54 | 1017.1 |
| 20260904073104 | 21 | 99 | 0.0 | 0.0 | 0.00 | 0.00 | 0.00 | 58 | 1017.3 |